Time,TemperatureF,DewpointF,PressureIn,WindDirection,WindDirectionDegrees,WindSpeedMPH,WindSpeedGustMPH,Humidity,HourlyPrecipIn,Conditions,Clouds,dailyrainin,SoftwareType,DateUTC
2013-07-19 00:15:00,72.7,70.6,29.93,SSW,202,0.0,-999.0,93,-99.99,,,0.00,Acu-Link.com,2013-07-19 04:15:00,
2013-07-19 00:30:00,72.7,70.9,29.92,East,90,1.7,-999.0,94,-99.99,,,0.00,Acu-Link.com,2013-07-19 04:30:00,
2013-07-19 00:45:00,72.9,71.1,29.92,NE,45,0.0,-999.0,94,-99.99,,,0.00,Acu-Link.com,2013-07-19 04:45:00,
2013-07-19 01:00:00,72.9,71.1,29.92,West,270,0.0,-999.0,94,-99.99,,,0.00,Acu-Link.com,2013-07-19 05:00:00,
2013-07-19 01:15:00,72.9,71.1,29.91,West,270,0.0,-999.0,94,-99.99,,,0.00,Acu-Link.com,2013-07-19 05:15:00,
2013-07-19 01:31:00,72.9,71.1,29.91,ESE,112,1.7,-999.0,94,-99.99,,,0.00,Acu-Link.com,2013-07-19 05:31:00,
2013-07-19 01:46:00,72.9,71.1,29.90,SSW,202,0.0,-999.0,94,-99.99,,,0.00,Acu-Link.com,2013-07-19 05:46:00,
2013-07-19 02:01:00,73.0,71.2,29.90,ESE,112,0.0,-999.0,94,-99.99,,,0.00,Acu-Link.com,2013-07-19 06:01:00,
2013-07-19 02:16:00,73.0,71.2,29.90,SSW,202,1.1,-999.0,94,-99.99,,,0.00,Acu-Link.com,2013-07-19 06:16:00,
2013-07-19 02:31:00,73.0,71.2,29.90,ESE,112,2.7,-999.0,94,-99.99,,,0.00,Acu-Link.com,2013-07-19 06:31:00,
2013-07-19 02:47:00,73.0,71.2,29.90,West,270,0.0,-999.0,94,-99.99,,,0.00,Acu-Link.com,2013-07-19 06:47:00,
2013-07-19 03:02:00,72.9,71.1,29.90,WNW,292,0.0,-999.0,94,-99.99,,,0.00,Acu-Link.com,2013-07-19 07:02:00,
2013-07-19 03:17:00,72.9,71.1,29.89,West,270,0.0,-999.0,94,-99.99,,,0.00,Acu-Link.com,2013-07-19 07:17:00,
2013-07-19 03:32:00,72.9,71.1,29.89,WNW,292,0.0,-999.0,94,-99.99,,,0.00,Acu-Link.com,2013-07-19 07:32:00,
2013-07-19 03:47:00,72.9,71.1,29.89,ESE,112,0.0,-999.0,94,-99.99,,,0.00,Acu-Link.com,2013-07-19 07:47:00,
2013-07-19 04:03:00,72.9,71.4,29.89,SSW,202,1.7,-999.0,95,-99.99,,,0.00,Acu-Link.com,2013-07-19 08:03:00,
2013-07-19 04:18:00,72.9,71.4,29.89,SSE,157,0.0,-999.0,95,-99.99,,,0.00,Acu-Link.com,2013-07-19 08:18:00,
2013-07-19 04:33:00,73.0,71.5,29.89,East,90,0.0,-999.0,95,-99.99,,,0.00,Acu-Link.com,2013-07-19 08:33:00,
2013-07-19 04:48:00,73.0,71.5,29.89,SSE,157,2.2,-999.0,95,-99.99,,,0.00,Acu-Link.com,2013-07-19 08:48:00,
2013-07-19 05:03:00,73.0,71.5,29.90,SW,225,0.0,-999.0,95,-99.99,,,0.00,Acu-Link.com,2013-07-19 09:03:00,
2013-07-19 05:18:00,73.0,71.5,29.89,SSW,202,1.1,-999.0,95,-99.99,,,0.00,Acu-Link.com,2013-07-19 09:18:00,
2013-07-19 05:33:00,73.0,71.5,29.89,West,270,0.0,-999.0,95,-99.99,,,0.00,Acu-Link.com,2013-07-19 09:33:00,
2013-07-19 05:49:00,72.7,71.2,29.89,East,90,0.0,-999.0,95,-99.99,,,0.00,Acu-Link.com,2013-07-19 09:49:00,
2013-07-19 06:04:00,72.7,71.2,29.89,ESE,112,0.0,-999.0,95,-99.99,,,0.00,Acu-Link.com,2013-07-19 10:04:00,
2013-07-19 06:19:00,72.7,71.5,29.89,West,270,0.0,-999.0,96,-99.99,,,0.00,Acu-Link.com,2013-07-19 10:19:00,
2013-07-19 06:34:00,72.5,71.3,29.89,SW,225,0.0,-999.0,96,-99.99,,,0.00,Acu-Link.com,2013-07-19 10:34:00,
2013-07-19 06:49:00,72.1,70.9,29.90,NW,315,0.0,-999.0,96,-99.99,,,0.00,Acu-Link.com,2013-07-19 10:49:00,
2013-07-19 07:05:00,72.5,71.3,29.90,ESE,112,2.7,-999.0,96,-99.99,,,0.00,Acu-Link.com,2013-07-19 11:05:00,
2013-07-19 07:20:00,72.7,71.8,29.91,ESE,112,1.1,-999.0,97,-99.99,,,0.00,Acu-Link.com,2013-07-19 11:20:00,
2013-07-19 07:35:00,72.9,72.0,29.91,West,270,0.0,-999.0,97,-99.99,,,0.00,Acu-Link.com,2013-07-19 11:35:00,
2013-07-19 07:50:00,73.0,72.1,29.93,ENE,67,0.0,-999.0,97,-99.99,,,0.00,Acu-Link.com,2013-07-19 11:50:00,
2013-07-19 08:05:00,73.4,72.2,29.94,West,270,0.0,-999.0,96,-99.99,,,0.00,Acu-Link.com,2013-07-19 12:05:00,
2013-07-19 08:21:00,73.8,72.3,29.95,West,270,1.7,-999.0,95,-99.99,,,0.00,Acu-Link.com,2013-07-19 12:21:00,
2013-07-19 08:36:00,74.3,72.5,29.95,ESE,112,1.7,-999.0,94,-99.99,,,0.00,Acu-Link.com,2013-07-19 12:36:00,
2013-07-19 08:51:00,74.7,72.5,29.94,ESE,112,2.2,-999.0,93,-99.99,,,0.00,Acu-Link.com,2013-07-19 12:51:00,
2013-07-19 09:06:00,76.3,73.1,29.95,ESE,112,2.2,-999.0,90,-99.99,,,0.00,Acu-Link.com,2013-07-19 13:06:00,
2013-07-19 09:21:00,78.6,74.7,29.95,WNW,292,2.2,-999.0,88,-99.99,,,0.00,Acu-Link.com,2013-07-19 13:21:00,
2013-07-19 09:37:00,79.5,74.2,29.96,NE,45,2.2,-999.0,84,-99.99,,,0.00,Acu-Link.com,2013-07-19 13:37:00,
2013-07-19 09:52:00,80.6,74.6,29.95,NE,45,0.0,-999.0,82,-99.99,,,0.00,Acu-Link.com,2013-07-19 13:52:00,
2013-07-19 10:07:00,81.0,72.3,29.96,NE,45,1.7,-999.0,75,-99.99,,,0.00,Acu-Link.com,2013-07-19 14:07:00,
2013-07-19 10:22:00,83.1,74.7,29.96,SE,135,0.0,-999.0,76,-99.99,,,0.00,Acu-Link.com,2013-07-19 14:22:00,
2013-07-19 10:37:00,84.2,74.6,29.95,WSW,247,3.2,-999.0,73,-99.99,,,0.00,Acu-Link.com,2013-07-19 14:37:00,
2013-07-19 10:53:00,85.8,75.7,29.95,East,90,2.2,-999.0,72,-99.99,,,0.00,Acu-Link.com,2013-07-19 14:53:00,
2013-07-19 11:08:00,86.5,76.4,29.95,ESE,112,4.2,-999.0,72,-99.99,,,0.00,Acu-Link.com,2013-07-19 15:08:00,
2013-07-19 11:23:00,85.1,75.0,29.94,NNE,22,2.2,-999.0,72,-99.99,,,0.00,Acu-Link.com,2013-07-19 15:23:00,
2013-07-19 11:39:00,84.0,75.6,29.94,SSW,202,3.7,-999.0,76,-99.99,,,0.00,Acu-Link.com,2013-07-19 15:39:00,
2013-07-19 11:54:00,85.6,75.5,29.95,NNW,337,2.2,-999.0,72,-99.99,,,0.00,Acu-Link.com,2013-07-19 15:54:00,
2013-07-19 12:09:00,85.3,75.6,29.95,East,90,1.1,-999.0,73,-99.99,,,0.00,Acu-Link.com,2013-07-19 16:09:00,
2013-07-19 12:24:00,86.5,76.0,29.95,West,270,1.1,-999.0,71,-99.99,,,0.00,Acu-Link.com,2013-07-19 16:24:00,
2013-07-19 12:39:00,88.9,76.9,29.93,West,270,3.2,-999.0,68,-99.99,,,0.00,Acu-Link.com,2013-07-19 16:39:00,
2013-07-19 12:55:00,88.9,76.0,29.92,West,270,3.7,-999.0,66,-99.99,,,0.00,Acu-Link.com,2013-07-19 16:55:00,
2013-07-19 13:10:00,90.1,76.7,29.93,South,180,3.7,-999.0,65,-99.99,,,0.00,Acu-Link.com,2013-07-19 17:10:00,
2013-07-19 13:25:00,86.7,75.7,29.92,NE,45,2.2,-999.0,70,-99.99,,,0.00,Acu-Link.com,2013-07-19 17:25:00,
2013-07-19 13:40:00,90.3,76.4,29.92,West,270,3.2,-999.0,64,-99.99,,,0.00,Acu-Link.com,2013-07-19 17:40:00,
2013-07-19 13:56:00,88.2,74.9,29.91,ESE,112,3.7,-999.0,65,-99.99,,,0.00,Acu-Link.com,2013-07-19 17:56:00,
2013-07-19 14:11:00,91.4,77.0,29.90,East,90,6.8,-999.0,63,-99.99,,,0.00,Acu-Link.com,2013-07-19 18:11:00,
2013-07-19 14:26:00,91.6,76.2,29.89,South,180,3.2,-999.0,61,-99.99,,,0.00,Acu-Link.com,2013-07-19 18:26:00,
2013-07-19 14:41:00,92.7,75.7,29.88,ESE,112,2.2,-999.0,58,-99.99,,,0.00,Acu-Link.com,2013-07-19 18:41:00,
2013-07-19 14:56:00,92.5,76.6,29.88,ESE,112,2.7,-999.0,60,-99.99,,,0.00,Acu-Link.com,2013-07-19 18:56:00,
2013-07-19 15:12:00,90.0,75.2,29.88,ENE,67,3.2,-999.0,62,-99.99,,,0.00,Acu-Link.com,2013-07-19 19:12:00,
2013-07-19 15:27:00,90.1,74.8,29.88,SSW,202,2.2,-999.0,61,-99.99,,,0.00,Acu-Link.com,2013-07-19 19:27:00,
2013-07-19 15:42:00,85.1,75.0,29.89,SW,225,10.9,-999.0,72,-99.99,,,0.00,Acu-Link.com,2013-07-19 19:42:00,
2013-07-19 15:57:00,78.6,72.6,29.88,WNW,292,6.3,-999.0,82,-99.99,,,0.00,Acu-Link.com,2013-07-19 19:57:00,
2013-07-19 16:12:00,79.0,73.4,29.87,West,270,3.7,-999.0,83,-99.99,,,0.00,Acu-Link.com,2013-07-19 20:12:00,
2013-07-19 16:28:00,79.5,73.5,29.86,North,0,4.2,-999.0,82,-99.99,,,0.00,Acu-Link.com,2013-07-19 20:28:00,
2013-07-19 16:43:00,79.5,73.5,29.87,NW,315,4.7,-999.0,82,-99.99,,,0.00,Acu-Link.com,2013-07-19 20:43:00,
2013-07-19 16:58:00,79.3,73.7,29.86,NNW,337,2.7,-999.0,83,-99.99,,,0.00,Acu-Link.com,2013-07-19 20:58:00,
2013-07-19 17:13:00,79.2,73.6,29.88,NNW,337,3.7,-999.0,83,-99.99,,,0.00,Acu-Link.com,2013-07-19 21:13:00,
2013-07-19 17:28:00,79.2,74.3,29.89,West,270,3.7,-999.0,85,-99.99,,,0.00,Acu-Link.com,2013-07-19 21:28:00,
2013-07-19 17:44:00,75.9,72.4,29.90,WSW,247,6.3,-999.0,89,-99.99,,,0.00,Acu-Link.com,2013-07-19 21:44:00,
2013-07-19 17:59:00,74.5,71.4,29.89,WNW,292,6.8,-999.0,90,-99.99,,,0.00,Acu-Link.com,2013-07-19 21:59:00,
2013-07-19 18:14:00,73.9,71.1,29.89,WSW,247,5.8,-999.0,91,-99.99,,,0.00,Acu-Link.com,2013-07-19 22:14:00,
2013-07-19 18:29:00,73.9,71.1,29.90,SW,225,1.1,-999.0,91,-99.99,,,0.00,Acu-Link.com,2013-07-19 22:29:00,
2013-07-19 18:45:00,74.1,71.3,29.91,NW,315,0.0,-999.0,91,-99.99,,,0.00,Acu-Link.com,2013-07-19 22:45:00,
2013-07-19 19:00:00,73.8,71.3,29.92,West,270,1.7,-999.0,92,-99.99,,,0.09,Acu-Link.com,2013-07-19 23:00:00,
2013-07-19 19:15:00,73.2,71.0,29.93,WSW,247,1.7,-999.0,93,-99.99,,,0.24,Acu-Link.com,2013-07-19 23:15:00,
2013-07-19 19:30:00,72.7,70.9,29.93,SW,225,1.7,-999.0,94,-99.99,,,0.44,Acu-Link.com,2013-07-19 23:30:00,
2013-07-19 19:45:00,72.7,71.2,29.93,SSE,157,1.7,-999.0,95,-99.99,,,0.74,Acu-Link.com,2013-07-19 23:45:00,
2013-07-19 20:01:00,72.7,71.2,29.93,SSE,157,1.1,-999.0,95,-99.99,,,0.82,Acu-Link.com,2013-07-20 00:01:00,
2013-07-19 20:16:00,72.7,71.2,29.93,ESE,112,3.2,-999.0,95,-99.99,,,0.88,Acu-Link.com,2013-07-20 00:16:00,
2013-07-19 20:31:00,72.7,71.5,29.95,West,270,2.7,-999.0,96,-99.99,,,0.92,Acu-Link.com,2013-07-20 00:31:00,
2013-07-19 20:46:00,72.7,71.5,29.93,ESE,112,4.7,-999.0,96,-99.99,,,0.99,Acu-Link.com,2013-07-20 00:46:00,
2013-07-19 21:01:00,72.7,71.5,29.93,ESE,112,2.7,-999.0,96,-99.99,,,1.02,Acu-Link.com,2013-07-20 01:01:00,
2013-07-19 21:17:00,72.5,71.3,29.92,South,180,2.7,-999.0,96,-99.99,,,1.03,Acu-Link.com,2013-07-20 01:17:00,
2013-07-19 21:32:00,72.5,71.3,29.93,WNW,292,1.7,-999.0,96,-99.99,,,1.05,Acu-Link.com,2013-07-20 01:32:00,
2013-07-19 21:47:00,72.5,71.3,29.92,SW,225,1.1,-999.0,96,-99.99,,,1.07,Acu-Link.com,2013-07-20 01:47:00,
2013-07-19 22:02:00,72.5,71.3,29.92,ESE,112,2.7,-999.0,96,-99.99,,,1.09,Acu-Link.com,2013-07-20 02:02:00,
2013-07-19 22:17:00,72.5,71.3,29.93,SW,225,0.0,-999.0,96,-99.99,,,1.09,Acu-Link.com,2013-07-20 02:17:00,
2013-07-19 22:33:00,72.5,71.3,29.93,NE,45,1.1,-999.0,96,-99.99,,,1.10,Acu-Link.com,2013-07-20 02:33:00,
2013-07-19 22:48:00,72.7,71.5,29.93,East,90,4.2,-999.0,96,-99.99,,,1.10,Acu-Link.com,2013-07-20 02:48:00,
2013-07-19 23:03:00,72.7,71.5,29.93,SSW,202,0.0,-999.0,96,-99.99,,,1.10,Acu-Link.com,2013-07-20 03:03:00,
2013-07-19 23:18:00,72.7,71.5,29.93,WNW,292,1.1,-999.0,96,-99.99,,,1.10,Acu-Link.com,2013-07-20 03:18:00,
2013-07-19 23:33:00,72.7,71.5,29.91,West,270,1.7,-999.0,96,-99.99,,,1.10,Acu-Link.com,2013-07-20 03:33:00,
2013-07-19 23:49:00,72.7,71.5,29.92,NW,315,1.7,-999.0,96,-99.99,,,1.10,Acu-Link.com,2013-07-20 03:49:00,